EW2809 White Oak MD US current weather conditions

sailwx.info

Air temperature 23.3° C
Dewpoint 20.1° C

Last reported at 2020-Aug-06 01:00 UTC.
Time now 2020-Aug-06 01:24 UTC

Location: N 39°03' W 076°60'.
View on Google Maps.

See reports from other nearby stations

  
Tides and Currents Weather Stations Pressure Air Temp Water Temp Dewpoint Dewpoint Depression Visibility Wind Speed Wind Dir Waves Ship Positions
date/time (UTC)wind fromknots sea level pressurealtimeterstation pressurevisibilityair tempwater tempwave heightnotes
2020-Aug-06 01:05 23.3
2020-Aug-06 01:00 23.3
2020-Aug-06 00:55 23.3
2020-Aug-06 00:45 23.9
2020-Aug-06 00:40 23.9
2020-Aug-06 00:35 23.9
2020-Aug-06 00:30 23.9
2020-Aug-06 00:25 24.4
2020-Aug-06 00:15 24.4
2020-Aug-06 00:10 25.0
2020-Aug-06 00:05 25.0
2020-Aug-05 23:55 25.0
2020-Aug-05 23:50 25.6
2020-Aug-05 23:45 25.6
2020-Aug-05 23:35 26.1
2020-Aug-05 23:30 26.1
2020-Aug-05 23:25 26.7
2020-Aug-05 23:20 26.7
2020-Aug-05 23:15 26.7
2020-Aug-05 23:10 090 27.2
2020-Aug-05 23:05 090 27.2
2020-Aug-05 23:00 090 27.2
2020-Aug-05 22:55 135 27.2
2020-Aug-05 22:50 27.8
2020-Aug-05 22:45 27.8
2020-Aug-05 22:40 135 27.8
2020-Aug-05 22:30 27.8
2020-Aug-05 22:20 28.3
2020-Aug-05 22:15 315 28.3
2020-Aug-05 22:10 337 28.3
2020-Aug-05 22:05 292 0 gusting 2 28.3
2020-Aug-05 22:01 292 0 gusting 2 28.3
2020-Aug-05 21:55 292 28.9
2020-Aug-05 21:50 270 28.9
2020-Aug-05 21:45 090 29.4
2020-Aug-05 21:35 090 28.9
2020-Aug-05 21:30 292 29.4
2020-Aug-05 21:25 292 28.9
2020-Aug-05 21:20 292 28.9
2020-Aug-05 21:15 292 28.9
2020-Aug-05 21:10 315 0 gusting 2 29.4
2020-Aug-05 21:05 225 0 gusting 3 28.9
2020-Aug-05 21:00 090 29.4
2020-Aug-05 20:55 315 0 gusting 2 29.4
2020-Aug-05 20:45 292 28.9
2020-Aug-05 20:35 28.3
2020-Aug-05 20:25 090 28.3
2020-Aug-05 20:15 28.3
2020-Aug-05 20:10 292 27.8
2020-Aug-05 20:00 270 28.3
2020-Aug-05 19:55 270 28.9
2020-Aug-05 19:50 090 28.9
2020-Aug-05 19:40 270 29.4
2020-Aug-05 19:30 225 30.6
2020-Aug-05 19:25 270 31.1
2020-Aug-05 19:20 292 30.6
2020-Aug-05 19:10 315 30.6
2020-Aug-05 19:05 315 0 gusting 1 30.6
2020-Aug-05 19:00 247 30.6
2020-Aug-05 18:55 270 0 gusting 3 30.0
2020-Aug-05 18:50 292 0 gusting 3 30.6
2020-Aug-05 18:45 270 0 gusting 1 30.0
2020-Aug-05 18:40 225 0 gusting 1 30.0
2020-Aug-05 18:35 270 0 gusting 1 30.0
2020-Aug-05 18:30 225 0 gusting 2 30.0
2020-Aug-05 18:25 315 0 gusting 2 30.0
2020-Aug-05 18:20 270 0 gusting 2 30.0
2020-Aug-05 18:15 292 30.0
2020-Aug-05 18:10 292 30.0
2020-Aug-05 18:05 292 0 gusting 1 30.0
2020-Aug-05 18:00 112 0 gusting 3 29.4
2020-Aug-05 17:50 315 0 gusting 1 29.4
2020-Aug-05 17:45 090 0 gusting 1 29.4
2020-Aug-05 17:40 225 29.4
2020-Aug-05 17:35 315 0 gusting 1 28.9
2020-Aug-05 17:30 292 0 gusting 1 28.9
2020-Aug-05 17:25 292 0 gusting 2 28.9
2020-Aug-05 17:20 315 28.9
2020-Aug-05 17:15 315 28.9
2020-Aug-05 17:10 247 0 gusting 1 28.3
2020-Aug-05 17:05 292 28.3
2020-Aug-05 16:55 28.3
2020-Aug-05 16:50 292 27.8
2020-Aug-05 16:45 270 0 gusting 2 27.8
2020-Aug-05 16:35 315 0 gusting 2 27.2
2020-Aug-05 16:25 315 27.2
2020-Aug-05 16:20 225 27.2
2020-Aug-05 16:10 315 0 gusting 1 27.2
2020-Aug-05 16:05 225 27.2
2020-Aug-05 16:00 090 27.2
2020-Aug-05 15:50 225 0 gusting 1 26.7
2020-Aug-05 15:40 315 26.7
2020-Aug-05 15:30 292 26.7
2020-Aug-05 15:25 090 0 gusting 2 26.7
2020-Aug-05 15:20 247 0 gusting 1 26.7
2020-Aug-05 15:10 202 26.1
2020-Aug-05 15:05 315 26.1
2020-Aug-05 14:55 315 0 gusting 1 25.6
2020-Aug-05 14:50 225 0 gusting 1 25.6
2020-Aug-05 14:40 225 0 gusting 0 25.0
2020-Aug-05 14:30 315 24.4
2020-Aug-05 14:20 247 24.4
2020-Aug-05 14:15 315 23.9
2020-Aug-05 14:10 23.9
2020-Aug-05 14:05 315 23.9
2020-Aug-05 13:55 23.3
2020-Aug-05 13:50 270 23.3
2020-Aug-05 13:45 292 22.8
2020-Aug-05 13:40 22.8
2020-Aug-05 13:35 315 22.8
2020-Aug-05 13:25 315 22.2
2020-Aug-05 13:20 22.2
2020-Aug-05 13:15 22.2
2020-Aug-05 13:10 22.2
2020-Aug-05 13:05 315 21.7
2020-Aug-05 13:00 21.7
2020-Aug-05 12:50 21.1
2020-Aug-05 12:45 21.1
2020-Aug-05 12:40 21.1
2020-Aug-05 12:35 20.6
2020-Aug-05 12:30 315 20.0
2020-Aug-05 12:25 19.4
2020-Aug-05 12:20 19.4
2020-Aug-05 12:10 315 18.9
2020-Aug-05 12:00 18.9
2020-Aug-05 11:55 315 18.9
2020-Aug-05 11:50 315 18.9
2020-Aug-05 11:45 270 18.9
2020-Aug-05 11:40 18.9
2020-Aug-05 11:35 18.3
2020-Aug-05 11:30 18.3
2020-Aug-05 11:25 18.3
2020-Aug-05 11:20 18.3
2020-Aug-05 11:15 18.3
2020-Aug-05 11:10 18.3
2020-Aug-05 11:05 18.3
2020-Aug-05 11:00 270 18.3
2020-Aug-05 10:55 18.3
2020-Aug-05 10:50 18.3
2020-Aug-05 10:45 18.3
2020-Aug-05 10:40 18.3
2020-Aug-05 10:35 18.3
2020-Aug-05 10:30 18.3
2020-Aug-05 10:25 18.3
2020-Aug-05 10:20 18.3
2020-Aug-05 10:15 18.3
2020-Aug-05 10:10 18.3
2020-Aug-05 10:05 18.3
2020-Aug-05 10:00 18.3
2020-Aug-05 09:55 18.3
2020-Aug-05 09:50 18.3
2020-Aug-05 09:45 18.3
2020-Aug-05 09:40 18.3
2020-Aug-05 09:35 18.3
2020-Aug-05 09:30 18.3
2020-Aug-05 09:25 18.3
2020-Aug-05 09:20 18.3
2020-Aug-05 09:15 18.3
2020-Aug-05 09:10 18.3
2020-Aug-05 09:05 18.9
2020-Aug-05 09:00 18.9
2020-Aug-05 08:55 18.9
2020-Aug-05 08:50 18.9
2020-Aug-05 08:45 18.9
2020-Aug-05 08:40 18.9
2020-Aug-05 08:35 18.9
2020-Aug-05 08:30 18.9
2020-Aug-05 08:25 18.9
2020-Aug-05 08:20 18.9
2020-Aug-05 08:15 18.9
2020-Aug-05 08:10 19.4
2020-Aug-05 08:05 19.4
2020-Aug-05 08:00 19.4
2020-Aug-05 07:55 19.4
2020-Aug-05 07:50 19.4
2020-Aug-05 07:45 19.4
2020-Aug-05 07:40 19.4
2020-Aug-05 07:35 19.4
2020-Aug-05 07:30 19.4
2020-Aug-05 07:25 19.4
2020-Aug-05 07:20 19.4
2020-Aug-05 07:15 19.4
2020-Aug-05 07:10 20.0
2020-Aug-05 07:05 20.0
2020-Aug-05 07:00 20.0
2020-Aug-05 06:55 20.0
2020-Aug-05 06:50 20.0
2020-Aug-05 06:45 20.0
2020-Aug-05 06:40 20.0
2020-Aug-05 06:35 19.4
2020-Aug-05 06:30 19.4
2020-Aug-05 06:25 19.4
2020-Aug-05 06:20 19.4
2020-Aug-05 06:15 19.4
2020-Aug-05 06:10 19.4
2020-Aug-05 06:05 19.4
2020-Aug-05 06:00 19.4
2020-Aug-05 05:55 20.0
2020-Aug-05 05:50 20.0
2020-Aug-05 05:45 20.0
2020-Aug-05 05:40 20.0
2020-Aug-05 05:35 20.0
2020-Aug-05 05:30 270 20.0
2020-Aug-05 05:25 270 20.6
2020-Aug-05 05:20 20.6
2020-Aug-05 05:15 20.6
2020-Aug-05 05:10 20.6
2020-Aug-05 05:05 20.6
2020-Aug-05 05:00 21.1
2020-Aug-05 04:55 21.1
2020-Aug-05 04:50 21.1
2020-Aug-05 04:45 21.1
2020-Aug-05 04:40 21.1
2020-Aug-05 04:35 270 21.1
2020-Aug-05 04:30 21.1
2020-Aug-05 04:25 21.1
2020-Aug-05 04:20 21.1
2020-Aug-05 04:15 21.1
2020-Aug-05 04:10 21.1
2020-Aug-05 04:05 21.1
2020-Aug-05 04:00 21.1
2020-Aug-05 03:55 21.7
2020-Aug-05 03:50 21.7
2020-Aug-05 03:45 21.7
2020-Aug-05 03:40 21.7
2020-Aug-05 03:35 21.7
2020-Aug-05 03:25 21.7
2020-Aug-05 03:20 21.7
2020-Aug-05 03:15 21.7
2020-Aug-05 03:10 21.7
2020-Aug-05 03:05 21.7
2020-Aug-05 03:00 21.7
2020-Aug-05 02:55 21.7
2020-Aug-05 02:50 21.7
2020-Aug-05 02:45 21.7
2020-Aug-05 02:40 21.7
2020-Aug-05 02:30 21.7
2020-Aug-05 02:20 21.7
2020-Aug-05 02:15 21.7
2020-Aug-05 02:05 21.7
2020-Aug-05 02:00 21.7
2020-Aug-05 01:55 21.7
2020-Aug-05 01:50 21.7
2020-Aug-05 01:45 21.7
2020-Aug-05 01:40 21.7
2020-Aug-05 01:35 21.7
2020-Aug-05 01:30 270 21.7
2020-Aug-05 01:25 21.7
2020-Aug-05 01:20 270 21.7
2020-Aug-05 01:15 270 21.7
2020-Aug-05 01:10 22.2
2020-Aug-05 01:05 22.2
2020-Aug-05 00:55 270 22.2
2020-Aug-05 00:50 090 0 gusting 2 22.8
2020-Aug-05 00:45 090 0 gusting 1 23.3
2020-Aug-05 00:40 112 0 gusting 2 23.9
2020-Aug-05 00:35 112 0 gusting 1 24.4
2020-Aug-05 00:25 090 24.4
2020-Aug-05 00:20 090 25.0
2020-Aug-05 00:10 25.0
2020-Aug-05 00:05 25.6
2020-Aug-04 23:55 090 25.6
2020-Aug-04 23:50 25.6
2020-Aug-04 23:45 090 26.1
2020-Aug-04 23:40 26.1
2020-Aug-04 23:35 26.1
2020-Aug-04 23:25 090 26.7
2020-Aug-04 23:20 26.7
2020-Aug-04 23:15 26.7
2020-Aug-04 23:10 26.7
2020-Aug-04 23:05 090 27.2
2020-Aug-04 23:00 090 27.2
2020-Aug-04 22:50 315 0 gusting 1 27.2
2020-Aug-04 22:45 247 27.8
2020-Aug-04 22:40 270 27.8
2020-Aug-04 22:30 270 28.3
2020-Aug-04 22:25 270 28.3
2020-Aug-04 22:20 090 28.3
2020-Aug-04 22:10 090 28.9
2020-Aug-04 22:05 090 29.4
2020-Aug-04 22:00 247 29.4
2020-Aug-04 21:55 29.4
2020-Aug-04 21:50 247 30.0
2020-Aug-04 21:40 270 0 gusting 2 30.0
2020-Aug-04 21:35 157 30.0
2020-Aug-04 21:30 270 30.0
2020-Aug-04 21:25 270 30.0
2020-Aug-04 21:15 270 29.4
2020-Aug-04 21:10 247 29.4
2020-Aug-04 21:05 225 0 gusting 2 29.4
2020-Aug-04 21:00 247 0 gusting 3 28.9
2020-Aug-04 20:50 225 28.3
2020-Aug-04 20:45 247 28.9
2020-Aug-04 20:40 247 28.9
2020-Aug-04 20:35 292 29.4
2020-Aug-04 20:30 270 0 gusting 2 28.9
2020-Aug-04 20:25 270 0 gusting 1 29.4
2020-Aug-04 20:20 292 0 gusting 1 28.9
2020-Aug-04 20:10 247 27.8
2020-Aug-04 20:05 135 27.8
2020-Aug-04 19:55 090 28.9
2020-Aug-04 19:50 247 29.4
2020-Aug-04 19:45 270 0 gusting 2 29.4
2020-Aug-04 19:35 090 0 gusting 4 29.4
2020-Aug-04 19:30 090 0 gusting 1 28.9
2020-Aug-04 19:25 270 0 gusting 2 28.9
2020-Aug-04 19:20 225 0 gusting 2 28.9
2020-Aug-04 19:15 247 0 gusting 1 28.9
2020-Aug-04 19:10 315 0 gusting 2 28.9
2020-Aug-04 19:05 247 28.9
2020-Aug-04 18:55 067 0 gusting 1 28.3
2020-Aug-04 18:50 225 0 gusting 4 27.8
2020-Aug-04 18:40 292 0 gusting 2 27.8
2020-Aug-04 18:35 247 0 gusting 2 27.8
2020-Aug-04 18:30 270 0 gusting 2 27.8
2020-Aug-04 18:20 270 0 gusting 2 27.2
2020-Aug-04 18:15 247 0 gusting 3 26.7
2020-Aug-04 18:05 247 0 gusting 4 26.7
2020-Aug-04 18:00 270 0 gusting 2 26.1
2020-Aug-04 17:55 292 0 gusting 2 25.6
2020-Aug-04 17:50 090 0 gusting 2 25.0
2020-Aug-04 17:45 315 0 gusting 2 25.0
2020-Aug-04 17:40 247 0 gusting 3 24.4
2020-Aug-04 17:35 270 0 gusting 3 24.4
2020-Aug-04 17:25 112 0 gusting 2 24.4
2020-Aug-04 17:20 247 1 gusting 5 24.4
2020-Aug-04 17:15 270 0 gusting 4 23.9
2020-Aug-04 17:10 225 0 gusting 6 23.9
2020-Aug-04 17:05 247 0 gusting 3 23.3
2020-Aug-04 16:55 270 0 gusting 4 23.3
2020-Aug-04 16:50 315 0 gusting 2 23.3
2020-Aug-04 16:40 292 0 gusting 2 23.3
2020-Aug-04 16:35 270 0 gusting 3 23.3
2020-Aug-04 16:30 247 0 gusting 1 23.3
2020-Aug-04 16:20 225 0 gusting 1 22.2
2020-Aug-04 16:15 247 0 gusting 2 21.7
2020-Aug-04 16:10 225 21.7
2020-Aug-04 16:05 315 0 gusting 2 21.1
2020-Aug-04 16:00 112 0 gusting 2 21.1
2020-Aug-04 15:55 112 0 gusting 3 21.1
2020-Aug-04 15:45 270 0 gusting 1 21.7
2020-Aug-04 15:40 292 0 gusting 3 21.1
2020-Aug-04 15:35 292 0 gusting 3 21.1
2020-Aug-04 15:25 315 0 gusting 4 21.1
2020-Aug-04 15:15 270 0 gusting 1 20.6
2020-Aug-04 15:10 292 0 gusting 1 20.0
2020-Aug-04 15:05 315 0 gusting 2 20.0
2020-Aug-04 14:55 270 1 gusting 5 19.4
2020-Aug-04 14:50 292 2 gusting 8 19.4
2020-Aug-04 14:40 292 1 gusting 10 19.4
2020-Aug-04 14:35 292 1 gusting 5 19.4
2020-Aug-04 14:30 315 1 gusting 8 19.4
2020-Aug-04 14:25 292 1 gusting 6 19.4
2020-Aug-04 14:20 315 2 gusting 12 19.4
2020-Aug-04 14:15 315 2 gusting 12 19.4
2020-Aug-04 14:10 292 0 gusting 4 19.4
2020-Aug-04 14:05 292 2 gusting 10 19.4
2020-Aug-04 14:00 315 3 gusting 7 19.4
2020-Aug-04 13:55 270 1 gusting 7 19.4
2020-Aug-04 13:50 292 1 gusting 5 19.4
2020-Aug-04 13:45 315 3 gusting 10 19.4
2020-Aug-04 13:40 270 1 gusting 6 19.4
2020-Aug-04 13:35 315 1 gusting 6 19.4
2020-Aug-04 13:30 292 2 gusting 7 20.0
2020-Aug-04 13:25 292 2 gusting 11 20.0
2020-Aug-04 13:20 270 2 gusting 5 20.0
2020-Aug-04 13:15 315 1 gusting 6 20.0
2020-Aug-04 13:10 292 0 gusting 3 20.0
2020-Aug-04 13:05 315 1 gusting 6 20.0
2020-Aug-04 13:00 315 1 gusting 4 20.0
2020-Aug-04 12:55 270 1 gusting 4 20.0
2020-Aug-04 12:50 270 1 gusting 5 20.0
2020-Aug-04 12:45 292 1 gusting 3 20.0
2020-Aug-04 12:40 315 1 gusting 5 20.0
2020-Aug-04 12:35 067 0 gusting 4 20.0
2020-Aug-04 12:30 090 0 gusting 4 20.0
2020-Aug-04 12:25 315 0 gusting 3 20.0
2020-Aug-04 12:20 292 0 gusting 4 20.0
2020-Aug-04 12:10 315 1 gusting 6 20.0
2020-Aug-04 12:05 315 0 gusting 3 20.0
2020-Aug-04 12:00 292 1 gusting 6 20.0
2020-Aug-04 11:55 292 20.0
2020-Aug-04 11:50 292 1 gusting 7 20.0
2020-Aug-04 11:45 292 0 gusting 4 20.0
2020-Aug-04 11:40 292 1 gusting 6 20.0
2020-Aug-04 11:35 315 1 gusting 9 20.0
2020-Aug-04 11:30 315 0 gusting 4 20.0
2020-Aug-04 11:25 292 0 gusting 3 20.0
2020-Aug-04 11:20 292 0 gusting 6 20.0
2020-Aug-04 11:15 315 0 gusting 3 20.0
2020-Aug-04 11:10 292 0 gusting 6 20.0
2020-Aug-04 11:05 292 0 gusting 2 20.0
2020-Aug-04 11:00 315 0 gusting 4 20.0
2020-Aug-04 10:55 315 0 gusting 6 20.0
2020-Aug-04 10:50 315 0 gusting 6 20.0
2020-Aug-04 10:45 292 20.0
2020-Aug-04 10:40 292 0 gusting 2 20.0
2020-Aug-04 10:35 315 0 gusting 2 20.6
2020-Aug-04 10:30 292 0 gusting 3 20.6
2020-Aug-04 10:25 292 20.6
2020-Aug-04 10:20 315 20.6
2020-Aug-04 10:15 292 20.6
2020-Aug-04 10:10 292 20.6
2020-Aug-04 10:05 292 20.6
2020-Aug-04 10:00 20.6
2020-Aug-04 09:50 225 20.6
2020-Aug-04 09:45 225 20.6
2020-Aug-04 09:40 20.6
2020-Aug-04 09:35 20.6
2020-Aug-04 09:30 20.6
2020-Aug-04 09:25 20.6
2020-Aug-04 09:20 20.6
2020-Aug-04 09:15 20.6
2020-Aug-04 09:10 20.6
2020-Aug-04 09:05 20.6
2020-Aug-04 09:00 20.6
2020-Aug-04 08:55 20.6
2020-Aug-04 08:50 247 20.6
2020-Aug-04 08:45 247 20.6
2020-Aug-04 08:40 20.6
2020-Aug-04 08:35 20.6
2020-Aug-04 08:30 20.6
2020-Aug-04 08:25 20.6
2020-Aug-04 08:20 20.6
2020-Aug-04 08:15 20.6
2020-Aug-04 08:10 20.6
2020-Aug-04 08:05 20.6
2020-Aug-04 08:00 20.6
2020-Aug-04 07:55 247 20.6
2020-Aug-04 07:50 247 20.6
2020-Aug-04 07:45 20.6
2020-Aug-04 07:40 247 20.6
2020-Aug-04 07:35 247 20.6
2020-Aug-04 07:30 225 21.1
2020-Aug-04 07:25 270 21.1
2020-Aug-04 07:20 045 21.1
2020-Aug-04 07:15 21.1
2020-Aug-04 07:10 045 21.1
2020-Aug-04 07:05 21.1
2020-Aug-04 07:00 045 21.1
2020-Aug-04 06:50 20.6
2020-Aug-04 06:45 20.6
2020-Aug-04 06:40 20.6
2020-Aug-04 06:35 20.6
2020-Aug-04 06:30 21.1
2020-Aug-04 06:25 21.1
2020-Aug-04 06:20 21.1
2020-Aug-04 06:15 21.1
2020-Aug-04 06:05 045 21.1
2020-Aug-04 06:00 045 21.1
2020-Aug-04 05:55 21.1
2020-Aug-04 05:50 045 21.1
2020-Aug-04 05:45 045 21.7
2020-Aug-04 05:40 045 21.7
2020-Aug-04 05:35 21.7
2020-Aug-04 05:30 045 21.7
2020-Aug-04 05:25 045 21.7
2020-Aug-04 05:20 292 21.7
2020-Aug-04 05:15 090 21.7
2020-Aug-04 05:10 090 21.7
2020-Aug-04 05:05 21.7
2020-Aug-04 05:00 21.7
2020-Aug-04 04:55 21.7
2020-Aug-04 04:50 21.7
2020-Aug-04 04:45 21.7
2020-Aug-04 04:40 21.7
2020-Aug-04 04:35 21.7
2020-Aug-04 04:30 21.7
2020-Aug-04 04:25 21.7
2020-Aug-04 04:20 090 21.7
2020-Aug-04 04:15 21.7
2020-Aug-04 04:05 090 21.7
2020-Aug-04 04:00 067 21.7
2020-Aug-04 03:50 337 21.7
2020-Aug-04 03:40 21.7
2020-Aug-04 03:35 21.7
2020-Aug-04 03:25 21.7
2020-Aug-04 03:20 21.7
2020-Aug-04 03:15 21.7
2020-Aug-04 03:10 21.7
2020-Aug-04 03:00 21.7
2020-Aug-04 02:55 21.7
2020-Aug-04 02:50 21.7
2020-Aug-04 02:40 21.7
2020-Aug-04 02:35 21.7
2020-Aug-04 02:30 21.7
2020-Aug-04 02:25 21.7
2020-Aug-04 02:20 21.7
2020-Aug-04 02:10 21.7
2020-Aug-04 02:05 21.7
2020-Aug-04 02:00 21.7
2020-Aug-04 01:55 21.7
2020-Aug-04 01:50 21.7
2020-Aug-04 01:45 21.7
2020-Aug-04 01:35 21.7
2020-Aug-04 01:30 21.7
2020-Aug-04 01:25 21.7
2020-Aug-04 01:20 21.7
2020-Aug-04 01:15 112 21.7
2020-Aug-04 01:10 112 21.7
2020-Aug-04 01:05 21.7
2020-Aug-04 01:00 21.7